TimeEST,TemperatureF,Dew PointF,Humidity,Sea Level PressureIn,VisibilityMPH,Wind Direction,Wind SpeedMPH,Gust SpeedMPH,PrecipitationIn,Events,Conditions,WindDirDegrees,DateUTC
12:03 AM,32.0,23.0,69,30.17,10.0,SSW,18.4,24.2,N/A,,Clear,200,2013-01-19 05:03:00
12:23 AM,32.0,23.0,69,30.16,10.0,SSW,15.0,-,N/A,,Clear,200,2013-01-19 05:23:00
12:42 AM,32.0,23.0,69,30.16,10.0,SSW,17.3,20.7,N/A,,Clear,200,2013-01-19 05:42:00
1:03 AM,32.0,23.0,69,30.16,10.0,SSW,15.0,21.9,N/A,,Clear,200,2013-01-19 06:03:00
1:23 AM,32.0,23.0,69,30.15,10.0,SSW,17.3,23.0,N/A,,Clear,210,2013-01-19 06:23:00
1:42 AM,33.8,23.0,65,30.15,10.0,SSW,12.7,20.7,N/A,,Clear,210,2013-01-19 06:42:00
2:03 AM,33.8,23.0,65,30.15,10.0,SSW,15.0,21.9,N/A,,Clear,200,2013-01-19 07:03:00
2:23 AM,33.8,23.0,65,30.15,10.0,SSW,15.0,21.9,N/A,,Clear,200,2013-01-19 07:23:00
2:43 AM,33.8,23.0,65,30.15,10.0,SSW,12.7,19.6,N/A,,Clear,200,2013-01-19 07:43:00
3:03 AM,33.8,23.0,65,30.15,10.0,SW,11.5,-,N/A,,Clear,220,2013-01-19 08:03:00
3:22 AM,33.8,23.0,65,30.15,10.0,SSW,13.8,23.0,N/A,,Clear,210,2013-01-19 08:22:00
3:43 AM,33.8,23.0,65,30.15,10.0,SSW,12.7,18.4,N/A,,Clear,210,2013-01-19 08:43:00
4:03 AM,33.8,23.0,65,30.14,10.0,SSW,11.5,17.3,N/A,,Clear,210,2013-01-19 09:03:00
4:22 AM,33.8,23.0,65,30.13,10.0,SSW,15.0,20.7,N/A,,Clear,200,2013-01-19 09:22:00
4:43 AM,33.8,23.0,65,30.12,10.0,SSW,13.8,-,N/A,,Clear,200,2013-01-19 09:43:00
5:03 AM,33.8,23.0,65,30.12,10.0,SSW,15.0,18.4,N/A,,Clear,210,2013-01-19 10:03:00
5:22 AM,33.8,23.0,65,30.12,10.0,SSW,12.7,-,N/A,,Clear,210,2013-01-19 10:22:00
5:43 AM,33.8,23.0,65,30.13,10.0,SSW,12.7,17.3,N/A,,Clear,210,2013-01-19 10:43:00
6:03 AM,33.8,23.0,65,30.12,10.0,SSW,13.8,18.4,N/A,,Clear,210,2013-01-19 11:03:00
6:22 AM,33.8,23.0,65,30.12,10.0,SSW,17.3,-,N/A,,Clear,210,2013-01-19 11:22:00
6:43 AM,33.8,23.0,65,30.12,10.0,SSW,11.5,17.3,N/A,,Clear,210,2013-01-19 11:43:00
7:03 AM,33.8,23.0,65,30.12,10.0,SSW,12.7,-,N/A,,Clear,210,2013-01-19 12:03:00
7:22 AM,33.8,23.0,65,30.12,10.0,SSW,11.5,-,N/A,,Clear,210,2013-01-19 12:22:00
7:43 AM,33.8,23.0,65,30.12,10.0,SSW,13.8,21.9,N/A,,Clear,210,2013-01-19 12:43:00
8:03 AM,33.8,23.0,65,30.12,10.0,SSW,11.5,-,N/A,,Clear,210,2013-01-19 13:03:00
8:22 AM,33.8,23.0,65,30.12,10.0,SSW,13.8,19.6,N/A,,Clear,210,2013-01-19 13:22:00
8:43 AM,33.8,23.0,65,30.12,10.0,SSW,16.1,19.6,N/A,,Clear,210,2013-01-19 13:43:00
9:03 AM,35.6,23.0,60,30.12,10.0,SSW,15.0,-,N/A,,Clear,210,2013-01-19 14:03:00
9:22 AM,35.6,24.8,65,30.12,10.0,SSW,16.1,21.9,N/A,,Clear,210,2013-01-19 14:22:00
9:43 AM,37.4,24.8,60,30.12,10.0,SSW,13.8,21.9,N/A,,Clear,210,2013-01-19 14:43:00
10:03 AM,37.4,24.8,60,30.12,10.0,SW,16.1,23.0,N/A,,Clear,220,2013-01-19 15:03:00
10:23 AM,39.2,26.6,61,30.12,10.0,SSW,16.1,-,N/A,,Clear,210,2013-01-19 15:23:00
10:43 AM,41.0,26.6,57,30.12,10.0,SSW,17.3,24.2,N/A,,Clear,210,2013-01-19 15:43:00
11:02 AM,41.0,26.6,57,30.11,10.0,SW,16.1,21.9,N/A,,Clear,220,2013-01-19 16:02:00
11:23 AM,42.8,26.6,53,30.10,10.0,SSW,16.1,24.2,N/A,,Clear,210,2013-01-19 16:23:00
11:43 AM,42.8,26.6,53,30.08,10.0,SSW,21.9,29.9,N/A,,Clear,210,2013-01-19 16:43:00
12:02 PM,44.6,26.6,49,30.07,10.0,SW,16.1,25.3,N/A,,Clear,220,2013-01-19 17:02:00
12:23 PM,44.6,26.6,49,30.05,10.0,SSW,17.3,26.5,N/A,,Clear,210,2013-01-19 17:23:00
12:43 PM,44.6,26.6,49,30.03,10.0,SSW,21.9,27.6,N/A,,Clear,210,2013-01-19 17:43:00
1:02 PM,44.6,26.6,49,30.02,10.0,SSW,21.9,28.8,N/A,,Clear,210,2013-01-19 18:02:00
1:23 PM,46.4,28.4,50,30.00,10.0,SSW,16.1,26.5,N/A,,Clear,210,2013-01-19 18:23:00
1:43 PM,46.4,28.4,50,29.99,10.0,SSW,19.6,24.2,N/A,,Clear,200,2013-01-19 18:43:00
2:02 PM,46.4,28.4,50,29.98,10.0,SSW,21.9,28.8,N/A,,Clear,210,2013-01-19 19:02:00
2:23 PM,48.2,28.4,46,29.97,10.0,SW,19.6,27.6,N/A,,Clear,220,2013-01-19 19:23:00
3:02 PM,50.0,28.4,43,29.94,10.0,SSW,17.3,27.6,N/A,,Clear,210,2013-01-19 20:02:00
3:23 PM,50.0,28.4,43,29.93,10.0,SSW,16.1,27.6,N/A,,Clear,210,2013-01-19 20:23:00
3:43 PM,50.0,26.6,40,29.92,10.0,SSW,18.4,28.8,N/A,,Clear,210,2013-01-19 20:43:00
4:03 PM,50.0,26.6,40,29.91,10.0,SSW,20.7,28.8,N/A,,Clear,200,2013-01-19 21:03:00
4:23 PM,50.0,26.6,40,29.90,10.0,SSW,18.4,25.3,N/A,,Clear,210,2013-01-19 21:23:00
4:43 PM,48.2,26.6,43,29.89,10.0,SSW,16.1,28.8,N/A,,Clear,200,2013-01-19 21:43:00
5:02 PM,48.2,26.6,43,29.89,10.0,SSW,15.0,27.6,N/A,,Clear,200,2013-01-19 22:02:00
5:23 PM,46.4,26.6,46,29.87,10.0,SSW,17.3,23.0,N/A,,Clear,200,2013-01-19 22:23:00
5:43 PM,46.4,26.6,46,29.87,10.0,South,18.4,26.5,N/A,,Clear,190,2013-01-19 22:43:00
6:03 PM,46.4,26.6,46,29.86,10.0,SSW,17.3,26.5,N/A,,Clear,200,2013-01-19 23:03:00
6:23 PM,46.4,26.6,46,29.85,10.0,SSW,19.6,26.5,N/A,,Clear,200,2013-01-19 23:23:00
6:43 PM,46.4,26.6,46,29.87,10.0,SSW,19.6,28.8,N/A,,Clear,200,2013-01-19 23:43:00
7:03 PM,44.6,28.4,53,29.88,10.0,SW,15.0,20.7,N/A,,Clear,220,2013-01-20 00:03:00
7:23 PM,44.6,28.4,53,29.88,10.0,SSW,17.3,25.3,N/A,,Clear,210,2013-01-20 00:23:00
7:43 PM,44.6,28.4,53,29.88,10.0,SSW,13.8,-,N/A,,Clear,210,2013-01-20 00:43:00
8:03 PM,42.8,28.4,57,29.88,10.0,SSW,15.0,19.6,N/A,,Clear,210,2013-01-20 01:03:00
8:23 PM,42.8,28.4,57,29.87,10.0,SSW,16.1,19.6,N/A,,Clear,200,2013-01-20 01:23:00
8:42 PM,42.8,28.4,57,29.86,10.0,SSW,15.0,19.6,N/A,,Clear,210,2013-01-20 01:42:00
9:03 PM,41.0,28.4,61,29.86,10.0,SSW,12.7,19.6,N/A,,Clear,210,2013-01-20 02:03:00
9:23 PM,41.0,28.4,61,29.87,10.0,SSW,12.7,-,N/A,,Clear,210,2013-01-20 02:23:00
9:42 PM,41.0,28.4,61,29.86,10.0,SSW,11.5,-,N/A,,Clear,210,2013-01-20 02:42:00
10:03 PM,41.0,28.4,61,29.85,10.0,SSW,11.5,-,N/A,,Clear,200,2013-01-20 03:03:00
10:23 PM,39.2,28.4,65,29.84,10.0,SSW,11.5,16.1,N/A,,Clear,210,2013-01-20 03:23:00
10:42 PM,39.2,28.4,65,29.84,10.0,SSW,11.5,-,N/A,,Clear,200,2013-01-20 03:42:00
11:03 PM,39.2,28.4,65,29.84,10.0,SSW,12.7,18.4,N/A,,Clear,210,2013-01-20 04:03:00
11:23 PM,39.2,28.4,65,29.83,10.0,SSW,12.7,18.4,N/A,,Clear,210,2013-01-20 04:23:00
11:42 PM,41.0,28.4,61,29.83,10.0,SSW,12.7,-,N/A,,Clear,210,2013-01-20 04:42:00